Date String (YYYY-MM-DD hh:mm:ss) UTC,Instrument flags,Ambient pressure (hPa),Sample flow (lpm),Bypass flow (lpm),Sample temperature (°C),Ambient temperature (°C),ASC tube jacket temperature (°C),LED temperature (°C),Box temperature (°C),Sample RH (%),Span deviation,Mass concentration (μg/m³),Mass concentration (μg/m³),Mass concentration (μg/m³)
DateTimeUTC,F1_M11,P_M11,Q1_M11,Q2_M11,T1_M11,T2_M11,T3_M11,T4_M11,T5_M11,U1_M11,ZSPAN_M11,X0_M11,X2_M11,X1_M11
2022-07-22 03:00:00,,0826.5,4.99,0.00,29.2,26.9,00.0,38.0,31.0,20.3,0000.0,0012.74,0005.32,0004.18
2022-07-22 03:01:00,,0826.5,4.99,0.00,29.2,27.1,00.0,38.0,31.1,20.4,0000.0,0012.52,0005.34,0004.18
2022-07-22 03:02:00,,0826.6,5.00,0.00,29.2,27.3,00.0,38.0,31.1,20.8,0000.0,0012.27,0005.28,0004.17
2022-07-22 03:03:00,,0826.5,5.00,0.00,29.2,27.5,00.0,38.0,31.1,20.6,0000.0,0012.54,0005.30,0004.15
2022-07-22 03:04:00,,0826.6,4.99,0.00,29.3,27.7,00.0,38.0,31.2,20.5,0000.0,0012.21,0005.28,0004.14
2022-07-22 03:05:00,,0826.6,5.00,0.00,29.3,27.9,00.0,38.0,31.2,20.4,0000.0,0012.38,0005.25,0004.14
2022-07-22 03:06:00,,0826.6,5.01,0.00,29.3,28.0,00.0,38.0,31.3,20.3,0000.0,0012.96,0005.27,0004.14
2022-07-22 03:07:00,,0826.5,4.99,0.00,29.3,28.2,00.0,38.0,31.3,20.1,0000.0,0013.14,0005.33,0004.14
2022-07-22 03:08:00,,0826.6,5.00,0.00,29.4,28.3,00.0,38.1,31.4,20.0,0000.0,0012.77,0005.35,0004.15
2022-07-22 03:09:00,,0826.5,4.99,0.00,29.4,28.4,00.0,38.1,31.4,19.8,0000.0,0012.37,0005.29,0004.15
2022-07-22 03:10:00,,0826.4,5.00,0.00,29.5,28.5,00.0,38.1,31.5,19.7,0000.0,0012.54,0005.29,0004.14
2022-07-22 03:11:00,,0826.5,5.00,0.00,29.5,28.0,00.0,38.1,31.5,19.6,0000.0,0012.86,0005.30,0004.14
2022-07-22 03:12:00,,0826.5,5.00,0.00,29.5,27.1,00.0,38.0,31.3,19.7,0000.0,0012.86,0005.29,0004.14
2022-07-22 03:13:00,,0826.5,5.00,0.00,29.4,26.8,00.0,38.0,31.2,19.7,0000.0,0012.67,0005.27,0004.13
2022-07-22 03:14:00,,0826.5,5.00,0.00,29.3,26.9,00.0,38.0,31.1,19.8,0000.0,0012.61,0005.29,0004.13
2022-07-22 03:15:00,,0826.6,4.99,0.00,29.3,27.0,00.0,38.0,31.1,19.8,0000.0,0012.89,0005.32,0004.13
2022-07-22 03:16:00,,0826.6,4.99,0.00,29.3,27.2,00.0,38.0,31.1,19.8,0000.0,0012.41,0005.29,0004.12
2022-07-22 03:17:00,,0826.6,5.00,0.00,29.3,27.4,00.0,38.0,31.1,19.7,0000.0,0011.94,0005.28,0004.11
2022-07-22 03:18:00,,0826.7,5.00,0.00,29.3,27.6,00.0,38.0,31.2,19.7,0000.0,0012.25,0005.29,0004.11
2022-07-22 03:19:00,,0826.7,5.00,0.00,29.3,27.7,00.0,38.0,31.2,19.7,0000.0,0012.26,0005.32,0004.11
2022-07-22 03:20:00,,0826.7,4.99,0.00,29.3,27.9,00.0,38.0,31.3,19.4,0000.0,0012.41,0005.31,0004.09
2022-07-22 03:21:00,,0826.7,5.01,0.00,29.3,28.1,00.0,38.0,31.3,19.5,0000.0,0012.15,0005.27,0004.09
2022-07-22 03:22:00,,0826.7,5.01,0.00,29.4,28.2,00.0,38.1,31.4,19.5,0000.0,0011.85,0005.29,0004.08
2022-07-22 03:23:00,,0826.7,5.00,0.00,29.4,28.3,00.0,38.1,31.4,19.3,0000.0,0011.68,0005.31,0004.08
2022-07-22 03:24:00,,0826.7,5.01,0.00,29.4,28.4,00.0,38.1,31.5,19.3,0000.0,0011.80,0005.33,0004.09
2022-07-22 03:25:00,,0826.7,5.00,0.00,29.5,28.5,00.0,38.1,31.5,19.2,0000.0,0012.27,0005.35,0004.10
2022-07-22 03:26:00,,0826.7,5.00,0.00,29.5,27.9,00.0,38.1,31.4,19.2,0000.0,0012.03,0005.32,0004.10
2022-07-22 03:27:00,,0826.7,4.99,0.00,29.5,27.1,00.0,38.0,31.3,19.3,0000.0,0012.25,0005.37,0004.09
2022-07-22 03:28:00,,0826.7,5.00,0.00,29.4,26.9,00.0,38.0,31.2,19.2,0000.0,0012.27,0005.36,0004.09
2022-07-22 03:29:00,,0826.7,5.00,0.00,29.3,26.9,00.0,38.0,31.1,19.2,0000.0,0012.39,0005.27,0004.07
2022-07-22 03:30:00,,0826.7,4.99,0.00,29.3,27.0,00.0,38.0,31.1,19.2,0000.0,0012.74,0005.25,0004.07
2022-07-22 03:31:00,,0826.7,5.00,0.00,29.3,27.2,00.0,38.0,31.1,19.2,0000.0,0012.52,0005.26,0004.07
2022-07-22 03:32:00,,0826.7,5.01,0.00,29.3,27.4,00.0,38.0,31.1,19.1,0000.0,0012.36,0005.30,0004.08
2022-07-22 03:33:00,,0826.7,5.00,0.00,29.3,27.6,00.0,38.0,31.2,19.2,0000.0,0012.27,0005.28,0004.08
2022-07-22 03:34:00,,0826.7,4.99,0.00,29.3,27.8,00.0,38.0,31.2,19.2,0000.0,0012.30,0005.28,0004.08
2022-07-22 03:35:00,,0826.7,5.01,0.00,29.3,27.9,00.0,38.1,31.3,19.1,0000.0,0012.11,0005.30,0004.08
2022-07-22 03:36:00,,0826.7,5.01,0.00,29.3,28.1,00.0,38.1,31.3,19.1,0000.0,0011.89,0005.26,0004.07
2022-07-22 03:37:00,,0826.7,5.00,0.00,29.4,28.2,00.0,38.1,31.4,19.1,0000.0,0011.80,0005.21,0004.07
2022-07-22 03:38:00,,0826.7,5.00,0.00,29.4,28.3,00.0,38.1,31.4,19.0,0000.0,0011.69,0005.20,0004.08
2022-07-22 03:39:00,,0826.7,5.00,0.00,29.4,28.4,00.0,38.1,31.4,19.0,0000.0,0011.63,0005.23,0004.09
2022-07-22 03:40:00,,0826.7,4.99,0.00,29.5,28.5,00.0,38.2,31.5,18.8,0000.0,0011.88,0005.27,0004.09
2022-07-22 03:41:00,,0826.7,5.01,0.00,29.5,28.3,00.0,38.1,31.5,18.9,0000.0,0011.62,0005.27,0004.10
2022-07-22 03:42:00,,0826.7,5.00,0.00,29.5,27.5,00.0,38.1,31.4,18.8,0000.0,0012.41,0005.31,0004.10
2022-07-22 03:43:00,,0826.7,4.99,0.00,29.5,26.9,00.0,38.0,31.3,18.8,0000.0,0012.47,0005.37,0004.09
2022-07-22 03:44:00,,0826.7,5.01,0.00,29.4,26.9,00.0,38.0,31.2,18.9,0000.0,0012.49,0005.38,0004.09
2022-07-22 03:45:00,,0826.7,5.00,0.00,29.3,27.0,00.0,38.0,31.1,18.9,0000.0,0012.33,0005.37,0004.10
2022-07-22 03:46:00,,0826.7,5.00,0.00,29.3,27.1,00.0,38.0,31.1,19.0,0000.0,0012.44,0005.39,0004.09
2022-07-22 03:47:00,,0826.7,5.00,0.00,29.3,27.3,00.0,38.0,31.1,19.0,0000.0,0012.37,0005.39,0004.09
2022-07-22 03:48:00,,0826.7,5.00,0.00,29.3,27.5,00.0,38.0,31.2,18.9,0000.0,0013.45,0005.42,0004.08
2022-07-22 03:49:00,,0826.7,5.00,0.00,29.3,27.7,00.0,38.0,31.2,18.8,0000.0,0013.58,0005.41,0004.07
2022-07-22 03:50:00,,0826.7,5.00,0.00,29.3,27.9,00.0,38.1,31.3,18.9,0000.0,0013.43,0005.41,0004.08
2022-07-22 03:51:00,,0826.7,5.00,0.00,29.3,28.0,00.0,38.1,31.3,19.0,0000.0,0012.45,0005.37,0004.08
2022-07-22 03:52:00,,0826.7,5.00,0.00,29.4,28.1,00.0,38.1,31.3,18.9,0000.0,0012.11,0005.33,0004.08
2022-07-22 03:53:00,,0826.7,5.01,0.00,29.4,28.3,00.0,38.1,31.4,18.8,0000.0,0011.38,0005.30,0004.08
2022-07-22 03:54:00,,0826.7,4.99,0.00,29.4,28.4,00.0,38.1,31.4,18.8,0000.0,0011.32,0005.28,0004.09
2022-07-22 03:55:00,,0826.7,5.00,0.00,29.5,28.5,00.0,38.2,31.5,18.7,0000.0,0011.37,0005.30,0004.10
2022-07-22 03:56:00,,0826.7,5.00,0.00,29.5,28.5,00.0,38.2,31.5,18.6,0000.0,0011.64,0005.31,0004.10
2022-07-22 03:57:00,,0826.7,5.00,0.00,29.6,28.4,00.0,38.2,31.6,18.5,0000.0,0012.83,0005.27,0004.09
2022-07-22 03:58:00,,0826.7,5.00,0.00,29.5,27.5,00.0,38.1,31.4,18.5,0000.0,0014.60,0005.23,0004.09
2022-07-22 03:59:00,,0826.7,4.99,0.00,29.5,27.0,00.0,38.1,31.3,18.6,0000.0,0013.96,0005.24,0004.10
